Date String (YYYY-MM-DD hh:mm:ss) UTC,Instrument flags,Ambient pressure (hPa),Sample flow (lpm),Bypass flow (lpm),Sample temperature (°C),Ambient temperature (°C),ASC tube jacket temperature (°C),LED temperature (°C),Box temperature (°C),Sample RH (%),Span deviation,Mass concentration (μg/m³),Mass concentration (μg/m³),Mass concentration (μg/m³)
DateTimeUTC,F1_M11,P_M11,Q1_M11,Q2_M11,T1_M11,T2_M11,T3_M11,T4_M11,T5_M11,U1_M11,ZSPAN_M11,X0_M11,X2_M11,X1_M11
2022-08-09 17:00:00,,0831.9,5.00,0.00,29.5,27.7,00.0,38.1,31.4,36.5,0000.0,0012.08,0005.67,0004.86
2022-08-09 17:01:00,,0831.9,5.01,0.00,29.9,27.9,00.0,38.1,31.6,36.8,0000.0,0012.24,0005.71,0004.89
2022-08-09 17:02:00,,0831.9,5.00,0.00,30.3,28.1,00.0,38.2,31.8,35.0,0000.0,0012.29,0005.75,0004.91
2022-08-09 17:03:00,,0832.0,5.00,0.00,30.7,28.2,00.0,38.2,31.9,34.2,0000.0,0011.87,0005.75,0004.93
2022-08-09 17:04:00,,0831.9,5.00,0.00,30.8,27.8,00.0,38.3,31.7,33.4,0000.0,0011.99,0005.80,0004.96
2022-08-09 17:05:00,,0832.0,4.99,0.00,30.9,27.3,00.0,38.3,31.6,33.0,0000.0,0012.84,0005.83,0004.99
2022-08-09 17:06:00,,0831.9,5.00,0.00,30.9,27.3,00.0,38.4,31.5,33.3,0000.0,0013.36,0005.85,0005.03
2022-08-09 17:07:00,,0831.9,5.00,0.00,30.8,27.3,00.0,38.5,31.4,33.6,0000.0,0012.67,0005.90,0005.09
2022-08-09 17:08:00,,0832.0,5.00,0.00,30.8,27.5,00.0,38.6,31.4,34.1,0000.0,0012.91,0005.99,0005.15
2022-08-09 17:09:00,,0832.0,5.00,0.00,30.7,27.7,00.0,38.6,31.5,34.0,0000.0,0013.43,0006.05,0005.20
2022-08-09 17:10:00,,0832.0,5.00,0.00,30.7,27.9,00.0,38.7,31.6,33.3,0000.0,0013.54,0006.10,0005.22
2022-08-09 17:11:00,,0831.9,4.99,0.00,30.7,28.0,00.0,38.8,31.6,32.8,0000.0,0013.65,0006.13,0005.23
2022-08-09 17:12:00,,0832.0,5.01,0.00,30.7,28.2,00.0,38.8,31.7,33.4,0000.0,0013.61,0006.17,0005.24
2022-08-09 17:13:00,,0832.0,5.01,0.00,30.7,28.1,00.0,38.8,31.7,33.2,0000.0,0013.60,0006.17,0005.27
2022-08-09 17:14:00,,0832.0,4.99,0.00,30.7,27.6,00.0,38.8,31.5,33.0,0000.0,0013.57,0006.18,0005.30
2022-08-09 17:15:00,,0831.9,5.01,0.00,30.6,27.3,00.0,38.8,31.5,33.0,0000.0,0013.14,0006.16,0005.33
2022-08-09 17:16:00,,0831.8,5.00,0.00,30.5,27.3,00.0,38.8,31.4,33.2,0000.0,0013.27,0006.20,0005.36
2022-08-09 17:17:00,,0831.8,5.00,0.00,30.4,27.4,00.0,38.8,31.4,33.5,0000.0,0012.55,0006.21,0005.39
2022-08-09 17:18:00,,0831.8,5.00,0.00,30.4,27.6,00.0,38.8,31.5,33.0,0000.0,0012.93,0006.23,0005.41
2022-08-09 17:19:00,,0831.8,4.99,0.00,30.4,27.8,00.0,38.8,31.5,33.0,0000.0,0012.85,0006.21,0005.42
2022-08-09 17:20:00,,0831.8,5.01,0.00,30.4,28.0,00.0,38.8,31.6,33.4,0000.0,0012.88,0006.19,0005.43
2022-08-09 17:21:00,,0831.8,4.99,0.00,30.3,28.1,00.0,38.8,31.7,32.6,0000.0,0012.86,0006.21,0005.44
2022-08-09 17:22:00,,0831.7,4.99,0.00,30.4,28.1,00.0,38.8,31.7,32.3,0000.0,0012.75,0006.18,0005.44
2022-08-09 17:23:00,,0831.7,5.01,0.00,30.3,27.6,00.0,38.8,31.5,32.1,0000.0,0012.80,0006.20,0005.44
2022-08-09 17:24:00,,0831.7,4.99,0.00,30.2,27.2,00.0,38.8,31.4,32.7,0000.0,0012.81,0006.18,0005.43
2022-08-09 17:25:00,,0831.7,5.01,0.00,30.2,27.2,00.0,38.7,31.4,32.5,0000.0,0012.79,0006.17,0005.42
2022-08-09 17:26:00,,0831.7,5.00,0.00,30.1,27.3,00.0,38.7,31.3,32.7,0000.0,0012.83,0006.18,0005.41
2022-08-09 17:27:00,,0831.7,5.01,0.00,30.0,27.5,00.0,38.7,31.4,32.6,0000.0,0011.91,0006.16,0005.40
2022-08-09 17:28:00,,0831.7,5.00,0.00,30.0,27.7,00.0,38.7,31.4,32.2,0000.0,0011.52,0006.17,0005.39
2022-08-09 17:29:00,,0831.7,5.00,0.00,30.0,27.9,00.0,38.7,31.5,32.5,0000.0,0011.14,0006.18,0005.39
2022-08-09 17:30:00,,0831.7,5.00,0.00,30.0,28.1,00.0,38.7,31.6,33.1,0000.0,0012.12,0006.19,0005.40
2022-08-09 17:31:00,,0831.7,5.01,0.00,30.1,28.1,00.0,38.7,31.5,32.9,0000.0,0011.92,0006.21,0005.40
2022-08-09 17:32:00,,0831.7,4.99,0.00,30.0,27.6,00.0,38.6,31.3,32.3,0000.0,0011.95,0006.20,0005.40
2022-08-09 17:33:00,,0831.7,5.01,0.00,29.9,27.2,00.0,38.6,31.3,32.7,0000.0,0011.99,0006.21,0005.41
2022-08-09 17:34:00,,0831.7,4.99,0.00,29.9,27.2,00.0,38.6,31.3,33.0,0000.0,0011.92,0006.21,0005.42
2022-08-09 17:35:00,,0831.7,4.99,0.00,29.8,27.3,00.0,38.5,31.2,33.0,0000.0,0012.04,0006.24,0005.44
2022-08-09 17:36:00,,0831.7,5.02,0.00,29.8,27.5,00.0,38.5,31.3,32.9,0000.0,0012.20,0006.27,0005.44
2022-08-09 17:37:00,,0831.7,4.99,0.00,29.8,27.7,00.0,38.5,31.3,32.9,0000.0,0012.17,0006.24,0005.44
2022-08-09 17:38:00,,0831.7,5.00,0.00,29.8,27.9,00.0,38.5,31.4,33.0,0000.0,0012.46,0006.22,0005.43
2022-08-09 17:39:00,,0831.7,5.00,0.00,29.8,28.0,00.0,38.5,31.5,32.4,0000.0,0012.53,0006.24,0005.42
2022-08-09 17:40:00,,0831.7,5.01,0.00,29.8,28.2,00.0,38.5,31.5,32.0,0000.0,0012.42,0006.23,0005.41
2022-08-09 17:41:00,,0831.7,5.00,0.00,29.8,27.9,00.0,38.5,31.4,32.7,0000.0,0012.05,0006.22,0005.42
2022-08-09 17:42:00,,0831.7,5.00,0.00,29.8,27.4,00.0,38.5,31.3,33.1,0000.0,0011.66,0006.19,0005.41
2022-08-09 17:43:00,,0831.7,5.00,0.00,29.7,27.2,00.0,38.4,31.3,32.6,0000.0,0011.92,0006.18,0005.40
2022-08-09 17:44:00,,0831.7,5.00,0.00,29.7,27.3,00.0,38.4,31.2,32.9,0000.0,0011.83,0006.15,0005.38
2022-08-09 17:45:00,,0831.7,5.00,0.00,29.6,27.4,00.0,38.4,31.2,32.8,0000.0,0011.88,0006.12,0005.34
2022-08-09 17:46:00,,0831.7,5.01,0.00,29.6,27.6,00.0,38.4,31.2,33.6,0000.0,0012.29,0006.06,0005.30
2022-08-09 17:47:00,,0831.7,4.98,0.00,29.6,27.8,00.0,38.4,31.3,32.8,0000.0,0012.35,0006.02,0005.28
2022-08-09 17:48:00,,0831.7,5.01,0.00,29.6,27.9,00.0,38.4,31.4,33.2,0000.0,0012.80,0006.05,0005.27
2022-08-09 17:49:00,,0831.7,5.00,0.00,29.7,28.1,00.0,38.4,31.5,32.9,0000.0,0012.71,0006.05,0005.25
2022-08-09 17:50:00,,0831.7,5.00,0.00,29.7,27.9,00.0,38.4,31.4,32.2,0000.0,0012.74,0006.04,0005.23
2022-08-09 17:51:00,,0831.7,4.99,0.00,29.6,27.4,00.0,38.3,31.2,33.0,0000.0,0012.51,0006.00,0005.21
2022-08-09 17:52:00,,0831.7,5.00,0.00,29.6,27.1,00.0,38.3,31.2,32.7,0000.0,0012.86,0005.99,0005.18
2022-08-09 17:53:00,,0831.7,5.00,0.00,29.5,27.2,00.0,38.3,31.2,33.1,0000.0,0012.90,0006.01,0005.17
2022-08-09 17:54:00,,0831.7,4.99,0.00,29.5,27.3,00.0,38.3,31.1,32.4,0000.0,0012.43,0006.01,0005.17
2022-08-09 17:55:00,,0831.7,5.01,0.00,29.5,27.5,00.0,38.3,31.2,32.5,0000.0,0012.92,0006.04,0005.16
2022-08-09 17:56:00,,0831.7,4.99,0.00,29.5,27.7,00.0,38.3,31.3,32.5,0000.0,0013.57,0006.01,0005.16
2022-08-09 17:57:00,,0831.7,4.99,0.00,29.5,27.9,00.0,38.3,31.3,33.5,0000.0,0013.36,0006.03,0005.17
2022-08-09 17:58:00,,0831.7,5.01,0.00,29.6,28.0,00.0,38.3,31.3,32.5,0000.0,0013.07,0006.04,0005.17
2022-08-09 17:59:00,,0831.7,4.99,0.00,29.5,27.5,00.0,38.2,31.2,33.0,0000.0,0012.64,0006.01,0005.17
